星链-4101 (STARLINK-4101 )

导读

STARLINK-4101是美国SpaceX公司星链(Starlink)星座中的一颗卫星,于2022年7月17日发射升空。星链项目旨在构建全球卫星互联网星座,为全球提供高速宽带网络服务,尤其服务偏远地区与移动场景下互联网接入。作为低轨通信卫星,它运行于近地轨道,助力星链网络扩展覆盖范围,提升全球互联能力,代表了美国商业航天低轨星座部署的持续推进,也推动了卫星互联网技术发展与全球太空资源利用的探索。

Basic Information
目录编号:
53142
目录名称:
STARLINK-4101
国际标识:
2022-083L
轨道中心:
EARTH
卫星名称:
星链-4101
卫星全名:
星链-4101 (STARLINK-4101 )
卫星状态:
在轨 (已飞行1431 天)
发射日期:
2022-07-17 UTC
国别 :
美国 (US)
星等 :
--
Orbit Information
数据来源 国际轨道数据 AOE轨道数据
星历时间 2026-06-17T12:00:02+0800
11小时前
查看轨道信息
2026-06-14T01:00:00+0800
3天前
查看轨道信息
半长轴 6910.04km 6917.83km
偏心率 0.0001479 0.0001325
轨道倾角 53.161° 53.159°
近地点辐角 69.685° 80.051°
升交点赤经 87.417° 102.976°
平近点角 49.392° 316.487°
近地点 530.881km 538.776km
远地点 532.925km 540.61km
周期 95.275分钟 95.436分钟
每日圈数 15.114089 15.088567
Detailed Information
固有亮度:
5
最大亮度:
2.5
卫星平台:
Starlink v1.5
覆盖范围:
全球
运营商:
太空探索技术公司
运营商所在国:
美国
制造商(研发单位):
太空探索技术公司
制造商所在国:
美国
使用方式:
暂无
Satellite Introduction
星链(Starlink)计划是由太空探索技术公司(SpaceX)提出的一个巨型低轨卫星互联网星座项目,计划在2019年至2024年间在太空搭建由约1.2万颗卫星组成的“星链”网络,其中1584颗将部署在地球上空550千米处的近地轨道,并从2020年开始工作。该卫星仍在工作。
2D Orbit Map
3D Orbit Map
Orbit Altitude Analysis Chart
Orbit Inclination Analysis Chart
Orbit Comprehensive Analysis Chart
View Comprehensive Chart